Flag for South Africa Weather past 2 weeks in Cape Town, South Africa

Now
57 °F

Partly sunny.


Feels Like: 54 °F
Forecast: 52 / 60 °F
Wind: 14 mph from North

Location: Cape Town International Airport

Current Time: Aug 20, 2014 at 11:11:50 AM

Latest Report: Aug 20, 2014 at 10:00 AM


Visibility: N/A

Pressure: 29.98 "Hg

Humidity: 82%

Dew point: 52 °F

Location of Cape TownLocation

Historic Weather in Cape Town — Graph

°F

Cape Town temperature yesterday

Maximum temperature yesterday: 63 °F (at 12:00 PM)
Minimum temperature yesterday: 57 °F (at 2:00 AM)
Average temperature yesterday: 59 °F

Past Weeks' High & Low Weather Summary

 TemperatureHumidityPressure
High84 °F (Aug 17, 1:00 PM)100% (Aug 7, 5:00 AM)30.42 "Hg (Aug 7, 5:00 AM)
Low43 °F (Aug 7, 5:00 AM)31% (Aug 17, 1:00 PM)29.80 "Hg (Aug 17, 11:00 PM)
Average60 °F78%30.09 "Hg
* Reported Aug 5 9:00 AM — Aug 20 9:00 AM, Cape Town, Weather by CustomWeather, © 2014

Note: Actual official high and low records may vary slightly from our data, if they occured in-between our weather recording intervals... More about our weather records

Advertising

Cape Town weather history for previous 24 hours

 ConditionsComfort  
Time TempWeatherWind HumidityBarometerVisibility
9:00 AM
Aug 20
55 °FLight rain. Partly sunny.15 mph88%29.98 "Hg2 mi
8:00 AM57 °FLight rain. Broken clouds.12 mph77%29.98 "HgN/A
7:00 AM57 °FPartly sunny.13 mph77%29.95 "HgN/A
6:00 AM55 °FPassing clouds.13 mph88%29.95 "HgN/A
5:00 AM57 °FPassing clouds.13 mph77%29.95 "HgN/A
4:00 AM57 °FPassing clouds.10 mph77%29.95 "HgN/A
3:00 AM57 °FPassing clouds.13 mph82%29.95 "HgN/A
2:00 AM55 °FPassing clouds.14 mph82%29.98 "HgN/A
1:00 AM57 °FPassing clouds.12 mph77%29.98 "HgN/A
12:00 AM57 °FPartly cloudy.12 mph82%29.98 "HgN/A
11:00 PM
Aug 19
57 °FPassing clouds.12 mph77%29.98 "HgN/A
10:00 PM57 °FPassing clouds.12 mph77%29.98 "HgN/A
9:00 PM57 °FPassing clouds.12 mph77%29.98 "HgN/A
8:00 PM59 °FPassing clouds.10 mph77%29.98 "HgN/A
7:00 PM59 °FPassing clouds.17 mph72%29.95 "HgN/A
6:00 PM59 °FPassing clouds.21 mph72%29.95 "HgN/A
5:00 PM63 °FPartly sunny.18 mph64%29.95 "HgN/A
4:00 PM61 °FBroken clouds.17 mph72%29.95 "HgN/A
3:00 PM61 °FBroken clouds.21 mph68%29.92 "HgN/A
2:00 PM63 °FBroken clouds.25 mph73%29.92 "HgN/A
1:00 PM63 °FBroken clouds.21 mph68%29.92 "HgN/A
12:00 PM63 °FBroken clouds.14 mph68%29.95 "HgN/A
11:00 AM61 °FLight rain. Broken clouds.17 mph72%29.95 "HgN/A
Weather by CustomWeather, © 2014

See weather overviewHow to use our weather pages